Other Surface Observations
Issued by NWS

Home | Current Version | Previous Version | Text Only | Print | Product List | Glossary On
Versions: 1 2 3 4 5 6 7 8 9 10 11 12 13 14 15 16 17 18 19 20 21 22 23 24 25 26 27 28 29 30 31 32 33 34 35 36 37 38 39 40 41 42 43 44 45 46 47 48 49 50
603
SXUS52 KTAE 202319
OSOTAE
OSOTAE
North Florida/South Alabama/Southwest Georgia Weather Roundup
National Weather Service Tallahassee Florida
700 PM EDT SUN AUG 20 2017

Note: "fair" indicates few or no clouds below 12,000 feet with no
significant weather and/or obstructions to visibility.

!FLZ017-115-028-034-025-210000
...North Florida...

CITY           SKY/WX    TMP DP  RH WIND       PRES   REMARKS
TALLAHASSEE    PTSUNNY   84  72  67 W7        30.01R THUNDER
APALACHICOLA   SUNNY     84  70  62 NW5       30.01S
PERRY          CLOUDY    89  76  66 SW6       30.01S HX 100
CROSS CITY     CLOUDY    86  78  76 SE7       30.05S HX  98
JACKSONVILLE   PTSUNNY   84  75  74 E9        30.04S HX  92
$$

!FLZ112-006-005-002-011-210000
...Florida Panhandle...

CITY           SKY/WX    TMP DP  RH WIND       PRES   REMARKS
MARIANNA       CLOUDY    91  70  49 NE3       30.00R HX  96
BONIFAY        NOT AVBL
PANAMA CITY NW PTSUNNY   88  75  65 SE10      30.00R HX  97
TYNDALL AFB    CLOUDY    88  77  69 S7        30.01S HX 100
TYND DRONE APT FAIR      85  74  71 SE7       30.01S HX  92
DE FUNIAK SPR  FAIR      92  69  45 N5        30.01S HX  97
EGLIN AFB      MOSUNNY   90  73  57 SW6       29.99R HX  98
DESTIN         SUNNY     92  70  48 VRB3      30.00R HX  97
HURLBURT       SUNNY     89  69  50 SW7       29.99R HX  93
CRESTVIEW      SUNNY     94  69  44 NE3       30.02R HX  99
PENSACOLA      SUNNY     91  73  55 S7        30.00R HX  99
$$

!ALZ063-066-210000
...South Alabama...

CITY           SKY/WX    TMP DP  RH WIND       PRES   REMARKS
DOTHAN         MOSUNNY   91  73  55 N3        30.05R HX  99
OZARK CAIRNS   CLOUDY    91  70  49 NE5       30.02R HX  97
FT RUCKER HELI MOSUNNY   91  71  52 N3        30.01R HX  98
RUCKER HELI 3  FAIR      92  69  47 E5        30.02R HX  96
RUCKER HELI 2  FAIR      93  68  44 N5        30.01R HX  97
FLORALA APT      N/A    N/A N/A N/A MISG      30.03R
ANDALUSIA      SUNNY     95  70  44 NE5       30.02R HX 101
TROY           SUNNY     91  73  55 E3        30.03S HX  99
EUFALA         FAIR      93  73  52 NW5       30.02R HX 102
MOBILE         MOSUNNY   92  72  51 SE6       30.00F HX  99
$$

!GAZ120>161-210000
...Southwest and South Central Georgia...

CITY           SKY/WX    TMP DP  RH WIND       PRES   REMARKS
THOMASVILLE    FAIR      93  68  43 CALM      30.03R HX  97
BAINBRIDGE     SUNNY     95  70  43 NE6       30.01R HX 101
MOODY AFB      TSTM      75  70  83 S16G33    30.03  VSB 3/4
VALDOSTA       PTSUNNY   82  71  69 CALM      30.02R
MOULTRIE       PTSUNNY   91  70  49 CALM      30.03R HX  97
BLAKELY        SUNNY     91  70  49 E3        30.01S HX  97
ALBANY         SUNNY     95  67  39 N8        30.03R HX  99
TIFTON         FAIR      89  75  63 CALM      30.02R HX  99
FITZGERALD     MOCLDY    95  70  43 NW6       30.04S HX 101
CORDELE        FAIR      97  66  36 N3        30.04S HX 100
AMERICUS       FAIR      91  63  38 NE3       30.05S HX  92
HOMERVILLE     FAIR      79  73  83 SE13G21   30.05R
$$

!GMZ750-755-770-775-210000
...Coastal and Buoy Obs...

STATION/POSITION TIME  TEMP    WIND        PRES    VSBY  WAVE
                       AIR SEA DIR/SP/G                  HT/PER
                 (UTC) (F)     (DEG/KT/KT) (MB)    (MI)  (FT/S)
KEATON BEACH     2300   87     260/  5/  5 1016.1R
CEDAR KEY        2300   85      50/  5/  6 1016.6R
C TOWER          2300   85                 1016.9R
APALACHICOLA BUO 2250   86 87  120/  4/  6 1015.7R         1
PANAMA CITY BUOY 2250   86 87  110/  4/  8 1015.7R         1
MOBILE BUOY      2300   87 89   90/  4/  8 1015.6
ORANGE BCH AL BU 2250   87 90  160/  6/  8 1015.3F         1
$$




USA.gov is the U.S. government's official web portal to all federal, state and local government web resources and services.